Airfield :
LOGIN :

Register | Disclaimer

   EN    FR    IT 

 










Legend :    VFR   Marginal VFR   IFR   Intensive IFR   Very Intensive IFR
Visi :
Ceiling :
>= 8 km
>= 3000ft
5 to 8 km
1000 to 3000 ft
1500m to 5 km
500 to 1000 ft
800 to 1500m
200 to 500 ft
< 800m
< 200 ft
Symbols :   Thunderstorms  Fog  Heavy snow  Heavy precipitations  Wind > 20 kt
SIGMETs :     Misc.  Thunderstorms  Icing  Turbulence  Mountain Waves  Volcanic Ashes






- Airport Elevation : 1084 ft
- IATA code : EPL


LFSG - Épinal-Mirecourt

CURRENT METAR :
  • 272200Z AUTO 27006KT CAVOK 11/10 Q1024

EXPIRED METARs :
  • 272130Z AUTO 26005KT CAVOK 12/11 Q1024
  • 272100Z AUTO 29005KT CAVOK 12/11 Q1023
  • 272030Z AUTO 30004KT 250V330 CAVOK 13/11 Q1023
  • 272000Z AUTO 29004KT 260V320 9999 FEW040 OVC066 13/12 Q1022
  • 271930Z AUTO 28005KT CAVOK 14/12 Q1022

TAF N/A



MET'MAP, your aeronautical weather chart ! - Copyright ORBIFLY December 2007 - Disclaimer

ORBIFLY MET'MAP TEAM :

Programming & Development : Alexandra Zaïnal
Concept & original design : Baudouin d'Aumeries
Assistance for programming : Marc-Olivier Méhu
Technical & hardware support : Manuel Goepfert

Contact : metmap@orbifly.com




SOURCES & CREDITS :

   NOAA